Temperature
7 7 7 7 7 7 6 6 6 6 6 6 6 6 5 5 5 5 5 5 5 5 4 4 4 4 4 3 3 3 3 3 2 2 2 2 2 2 2 2 2 2 2
7 7 7 7 6 6 6 6 6 5 5 5 5 5 5 5 5 5 4 4 4 4 4 4 4 3 3 3 3 3 2 2 2 2 2 2 2 1 1 2 2 2 1
6 6 6 6 6 6 6 5 5 5 5 5 5 5 5 4 4 4 4 4 4 4 3 3 3 3 3 2 2 2 2 2 1 1 1 1 1 1 1 1 1 1 1
6 6 6 6 6 6 5 5 5 5 5 4 4 4 4 4 4 4 4 3 3 3 3 3 2 2 2 2 2 1 1 1 1 0 0 0 0 0 0 0 0 0 0
6 6 6 6 5 5 5 5 5 4 4 4 4 4 4 4 3 3 3 3 3 3 2 2 2 2 1 1 1 1 1 0 -0 -0 -0 -0 -0 -0 -1 -1 -1 -1 -0
5 5 5 5 5 5 5 5 4 4 4 4 4 4 3 3 3 3 2 2 2 2 2 2 1 1 1 1 0 0 -0 -1 -1 -1 -1 -1 -1 -1 -2 -2 -2 -2 -2
5 5 5 5 4 4 4 4 4 4 3 3 3 3 3 3 2 2 2 2 2 1 1 1 1 1 0 -0 -0 -1 -1 -1 -2 -2 -2 -2 -2 -2 -3 -3 -3 -3 -3
5 4 4 4 4 4 4 4 4 3 3 3 3 3 3 2 2 2 1 1 1 1 1 1 0 0 -0 -1 -1 -1 -1 -2 -2 -2 -2 -3 -3 -3 -3 -4 -4 -4 -3
4 4 4 4 4 4 4 4 3 3 3 3 3 2 2 2 2 1 1 1 1 1 0 0 -0 -1 -1 -1 -2 -2 -2 -2 -2 -3 -3 -3 -3 -4 -4 -4 -4 -4 -4
4 4 4 4 3 3 3 3 3 3 2 2 2 2 2 2 1 1 0 0 0 0 -0 -0 -1 -1 -1 -2 -2 -2 -2 -2 -3 -3 -3 -4 -4 -4 -4 -5 -5 -5 -5
4 4 3 3 3 3 3 3 2 2 2 2 2 2 1 1 1 1 0 -0 -0 -0 -1 -1 -1 -1 -2 -2 -3 -3 -3 -3 -4 -4 -4 -4 -4 -4 -5 -5 -5 -6 -6
3 3 3 3 3 3 2 2 2 2 2 2 1 1 1 1 1 0 -0 -1 -1 -1 -1 -1 -2 -2 -2 -3 -3 -3 -4 -4 -4 -4 -4 -4 -4 -4 -5 -5 -5 -6 -6
3 3 3 3 2 2 2 2 2 1 1 1 1 1 1 1 0 -0 -1 -1 -1 -1 -2 -2 -2 -3 -3 -3 -3 -4 -4 -5 -5 -5 -5 -5 -5 -5 -5 -5 -6 -6 -6
3 2 2 2 2 2 2 1 1 1 1 1 1 0 0 0 -0 -0 -1 -1 -2 -2 -2 -2 -3 -3 -4 -4 -4 -4 -4 -5 -5 -5 -5 -5 -6 -6 -6 -6 -6 -6 -6
2 2 2 2 1 1 1 1 1 1 0 0 -0 -0 -1 -0 -0 -1 -1 -2 -2 -2 -3 -3 -3 -4 -4 -4 -4 -5 -5 -5 -6 -6 -6 -6 -6 -6 -6 -6 -7 -7 -7
2 2 2 1 1 1 1 1 1 0 -0 -0 -1 -1 -1 -1 -1 -1 -2 -2 -2 -3 -3 -3 -4 -4 -4 -4 -5 -5 -5 -6 -6 -6 -6 -6 -7 -7 -7 -7 -7 -7 -7
2 1 1 1 0 0 0 -0 -0 0 -0 -1 -1 -1 -1 -2 -2 -2 -2 -3 -3 -3 -4 -4 -4 -4 -4 -5 -5 -5 -6 -6 -6 -7 -7 -7 -7 -7 -7 -7 -8 -8 -8
1 1 1 0 0 -0 -0 -1 -1 -1 -1 -1 -1 -2 -2 -2 -2 -3 -3 -3 -3 -4 -4 -4 -4 -4 -5 -5 -6 -6 -6 -6 -7 -7 -7 -7 -7 -8 -8 -8 -8 -8 -8
1 1 0 -0 -0 -0 -1 -1 -1 -1 -2 -2 -2 -2 -2 -3 -3 -3 -3 -4 -4 -4 -4 -4 -4 -5 -5 -6 -6 -6 -7 -7 -7 -7 -7 -7 -8 -8 -8 -8 -8 -8 -9
0 0 -0 -1 -1 -1 -1 -1 -2 -2 -2 -2 -2 -2 -3 -3 -3 -3 -4 -4 -4 -4 -4 -5 -5 -5 -6 -6 -6 -7 -7 -7 -7 -7 -7 -8 -8 -8 -8 -8 -9 -9 -9
-0 -0 -1 -1 -1 -2 -2 -2 -2 -2 -2 -2 -2 -3 -3 -4 -4 -4 -4 -4 -4 -4 -5 -5 -5 -6 -6 -6 -7 -7 -7 -7 -7 -7 -8 -8 -8 -8 -8 -9 -9 -9 -9
-1 -1 -1 -2 -2 -2 -2 -2 -2 -3 -3 -3 -3 -3 -4 -4 -4 -4 -4 -4 -4 -5 -5 -5 -6 -6 -6 -7 -7 -7 -7 -7 -7 -8 -8 -8 -8 -8 -9 -9 -9 -9 -9
-1 -2 -2 -2 -2 -2 -3 -3 -3 -3 -3 -3 -3 -3 -4 -4 -4 -4 -4 -5 -5 -5 -5 -6 -6 -6 -7 -7 -7 -7 -7 -7 -8 -8 -8 -8 -8 -9 -9 -9 -9 -10 -10
-2 -2 -2 -3 -3 -3 -3 -3 -3 -3 -3 -3 -4 -4 -4 -4 -5 -5 -5 -5 -5 -6 -6 -6 -6 -7 -7 -7 -7 -7 -8 -8 -8 -8 -8 -9 -9 -9 -9 -9 -10 -10 -10
-2 -2 -3 -3 -3 -3 -3 -3 -3 -3 -4 -4 -4 -4 -5 -5 -5 -5 -5 -6 -6 -6 -6 -7 -7 -7 -7 -7 -7 -8 -8 -8 -8 -8 -9 -9 -9 -9 -9 -10 -10 -10 -10
-3 -3 -3 -3 -3 -3 -3 -3 -4 -4 -4 -4 -5 -5 -5 -5 -5 -6 -6 -6 -6 -6 -7 -7 -7 -7 -7 -7 -8 -8 -8 -8 -8 -9 -9 -9 -9 -9 -10 -10 -10 -10 -10
Wind_Speed
4 4 4 4 4 4 4 4 4 3 3 4 3 3 3 2 2 1 1 1 1 1 1 0 0 1 1 1 1 1 0 1 3 2 1 2 3 4 7 9 9 9 10
5 4 4 4 4 4 5 5 4 4 4 4 4 4 4 3 3 3 3 2 2 2 2 1 1 0 0 1 1 1 1 1 2 3 2 2 2 3 4 5 7 8 9
4 4 4 4 4 5 5 5 4 4 4 4 4 5 5 4 4 4 4 3 3 3 3 2 2 1 1 1 1 1 1 1 1 2 3 2 2 3 4 5 5 5 8
3 4 5 6 6 6 6 5 5 5 5 5 5 5 5 5 5 4 4 4 4 3 3 3 3 3 3 3 2 2 2 1 1 2 3 2 2 3 2 4 5 4 5
4 4 6 6 5 5 5 5 5 5 5 5 5 5 5 5 5 5 5 5 5 4 4 4 4 5 5 4 3 3 2 2 2 2 3 3 2 2 3 3 5 5 5
4 6 5 4 4 5 5 5 5 5 5 5 5 6 6 6 8 10 7 5 5 5 5 4 4 5 6 6 6 6 4 3 3 3 3 3 3 3 3 4 4 4 4
5 5 5 4 5 5 5 5 6 6 5 6 6 6 7 8 11 10 10 5 5 5 5 5 4 4 5 4 5 6 6 7 6 4 4 5 4 4 3 4 4 4 5
5 5 5 5 5 5 4 6 6 5 5 6 6 7 7 8 11 11 10 6 5 6 6 6 6 5 5 5 4 4 4 5 5 4 5 5 5 5 4 4 4 5 5
5 6 5 5 5 5 6 6 6 5 6 6 5 6 7 8 11 11 10 4 5 6 6 6 6 6 9 9 5 5 5 5 7 8 8 8 9 8 5 2 2 3 5
6 6 6 5 6 6 7 6 5 5 6 6 6 6 7 8 11 12 11 4 5 6 5 6 9 9 10 10 6 6 6 6 4 4 5 6 5 6 6 3 3 3 3
6 6 5 5 6 6 6 5 5 5 5 5 6 6 6 8 10 13 12 6 7 6 6 5 6 11 12 12 10 7 9 6 4 4 4 4 3 3 3 4 4 4 4
5 6 6 6 5 5 5 5 4 5 5 5 5 6 5 6 9 11 14 13 10 7 7 6 6 11 11 12 9 9 11 7 3 3 4 4 4 4 4 4 6 7 7
5 6 6 6 5 5 5 5 4 4 5 5 5 6 6 5 7 12 13 14 14 8 7 10 11 12 11 8 10 11 8 4 4 4 5 5 4 4 4 3 4 5 7
6 6 6 5 5 5 4 5 5 5 6 6 6 7 6 5 5 5 6 7 10 9 7 9 12 12 9 8 8 6 4 4 5 5 5 4 3 3 3 3 3 4 4
6 6 6 5 5 5 5 6 7 7 8 8 7 7 7 7 9 10 7 6 6 7 5 4 4 4 5 4 4 5 4 4 5 4 4 4 4 4 4 3 3 3 4
6 6 5 5 5 5 5 6 9 10 13 14 13 11 9 12 12 13 13 13 13 11 7 5 6 6 6 6 6 5 5 5 5 5 5 5 5 5 5 4 4 4 6
7 7 5 5 5 5 5 5 6 7 10 12 13 14 13 13 13 12 12 12 12 11 7 6 6 7 6 6 6 6 6 5 5 5 5 5 5 5 5 5 5 5 6
7 7 7 6 6 6 6 6 6 6 6 6 8 12 13 13 12 12 12 9 7 7 6 6 7 6 6 6 6 6 5 5 5 5 5 5 5 5 5 5 5 6 7
6 6 6 6 6 6 5 5 6 6 7 6 5 7 10 10 11 11 10 6 6 6 6 6 6 6 6 6 6 6 6 5 5 5 5 5 5 5 6 6 6 9 9
6 9 8 6 5 5 5 6 6 6 6 6 7 6 4 5 5 6 6 5 6 7 6 6 6 6 6 5 5 5 6 6 6 5 5 5 5 5 6 7 7 7 7
6 7 9 6 6 6 6 6 6 6 7 7 7 7 9 6 6 7 6 6 7 7 6 6 6 5 5 5 5 6 6 6 6 6 6 6 5 6 6 6 7 7 7
5 6 5 6 6 6 6 6 6 7 7 8 7 7 11 7 6 6 6 6 6 6 5 5 5 5 5 5 6 6 6 6 6 6 6 6 6 6 6 6 7 7 7
5 6 6 6 6 8 8 6 6 7 7 7 7 6 6 6 6 6 6 6 5 5 5 5 5 5 5 6 6 6 6 7 6 6 6 6 6 6 6 7 8 8 8
6 6 7 6 6 6 6 7 6 7 7 7 7 6 6 6 6 6 6 5 5 5 5 5 5 7 7 6 6 7 8 8 7 7 7 7 7 6 6 7 8 8 9
6 6 7 7 7 7 7 7 7 7 7 6 6 6 5 5 6 6 5 5 5 5 6 5 5 6 7 8 7 7 9 10 10 8 7 6 7 7 7 7 7 8 8
6 7 7 7 7 7 7 7 7 7 6 6 6 6 6 6 5 5 4 4 5 5 5 5 6 7 7 7 9 9 10 11 11 11 8 5 6 7 7 7 8 8 9
Wind_Direction
237 236 241 241 234 226 222 229 228 228 223 219 218 219 224 228 218 199 222 233 219 270 294 157 318 331 3 341 345 360 357 191 236 279 298 331 343 341 341 343 343 343 342
235 232 238 241 234 231 234 234 227 225 224 221 217 218 224 224 215 207 216 217 214 225 240 227 264 274 331 312 321 327 289 232 210 265 292 314 311 319 327 333 340 342 337
235 236 243 242 237 239 240 235 227 224 226 226 218 220 225 224 220 217 211 215 217 221 224 220 235 220 249 255 251 261 270 273 212 240 280 287 294 310 323 323 327 331 332
233 237 245 245 240 240 239 233 229 222 222 227 225 226 226 224 222 220 214 215 217 223 223 223 226 219 229 234 245 244 233 235 235 247 272 284 286 296 316 317 322 324 322
236 246 250 251 245 243 241 237 231 224 226 226 227 231 229 226 225 218 216 217 217 225 230 231 232 232 235 235 236 227 215 220 233 249 270 283 291 308 311 303 311 315 308
240 250 256 255 250 244 242 238 232 231 229 225 228 229 232 234 235 233 225 218 219 223 233 240 243 247 250 256 259 253 232 220 225 234 253 264 272 272 281 298 305 320 312
246 256 258 253 252 250 244 238 234 232 227 230 233 229 232 236 239 240 235 223 221 227 230 235 242 240 250 247 261 270 269 261 249 231 239 247 254 253 264 279 280 283 281
251 255 257 255 256 256 248 242 238 230 228 232 235 233 234 239 240 241 239 228 223 228 228 228 231 239 240 235 234 245 252 260 259 248 235 242 244 243 239 255 264 279 273
260 259 257 252 255 256 251 248 240 229 233 233 233 231 233 243 241 242 241 224 229 236 235 230 228 234 247 249 239 239 251 261 267 262 260 264 271 276 275 271 283 299 297
263 261 258 250 249 252 253 250 239 230 236 236 239 233 232 239 242 242 239 222 230 240 241 238 241 241 248 249 234 230 244 251 249 262 265 273 278 281 280 252 238 259 281
266 267 264 255 249 250 252 245 239 235 237 238 244 243 237 240 246 245 240 223 225 234 239 240 240 248 252 252 246 234 244 249 234 240 250 257 257 255 257 246 230 227 242
270 269 268 263 257 254 249 249 238 229 236 244 248 257 251 247 248 247 244 239 234 230 237 238 240 249 253 255 254 248 252 253 236 239 248 252 252 256 255 253 250 246 244
277 273 272 269 261 252 244 245 242 231 234 243 243 254 259 249 247 247 248 247 243 236 237 241 247 253 253 255 255 255 253 238 231 244 252 253 246 245 252 261 263 265 267
276 277 275 271 268 259 247 237 233 232 236 241 243 249 255 252 243 241 242 249 247 243 244 248 252 254 249 245 249 252 241 233 236 242 249 252 248 246 251 257 270 283 286
274 275 275 268 265 264 256 243 239 234 229 235 240 239 244 253 249 242 240 238 231 235 234 231 230 235 233 233 235 237 233 236 246 239 242 252 257 258 262 261 261 271 270
273 274 271 271 268 263 268 278 256 247 254 250 247 244 246 250 260 254 249 248 247 243 237 231 232 230 232 233 236 239 235 236 237 237 241 247 254 256 262 261 260 262 271
260 266 269 266 264 263 260 262 279 276 259 256 254 252 253 257 259 257 253 250 248 241 235 233 233 232 232 231 232 235 239 237 232 235 240 242 248 255 260 262 262 266 271
260 262 262 260 257 257 254 252 253 263 275 274 262 259 260 259 258 256 252 248 245 234 228 232 233 233 232 232 233 235 238 237 234 237 239 240 240 248 256 259 260 264 272
263 262 259 258 256 254 253 251 251 252 258 267 273 269 260 260 257 254 244 230 233 236 232 232 232 231 233 232 231 231 232 234 233 233 236 237 237 243 253 256 261 269 273
261 262 262 260 259 257 252 251 251 251 254 256 258 260 256 249 248 247 235 228 230 235 233 233 232 230 229 230 230 230 232 232 231 234 238 238 237 242 251 255 260 266 269
261 265 264 263 256 253 252 252 252 251 254 256 256 252 246 242 244 244 241 236 233 234 232 231 229 227 228 227 227 229 231 234 232 232 235 236 237 244 250 255 260 264 270
256 260 257 256 258 256 257 254 254 254 254 257 263 260 254 247 243 244 242 240 235 231 228 225 226 225 222 222 226 227 230 233 233 232 236 237 238 243 249 255 260 266 271
254 259 263 261 258 263 267 258 253 254 256 256 257 256 252 244 242 243 242 238 233 231 224 220 225 231 231 228 225 222 226 232 231 227 232 240 244 246 251 257 261 268 270
250 255 260 264 261 257 259 262 258 257 256 257 255 253 251 248 246 244 240 235 229 224 222 223 228 233 234 234 234 230 231 235 234 232 228 236 246 253 255 260 263 266 270
251 254 257 260 261 261 262 263 262 259 259 258 256 254 251 247 247 245 236 228 222 225 228 228 231 234 236 235 236 237 240 243 243 240 236 239 243 250 256 261 264 270 271
255 256 259 260 260 259 260 262 263 260 259 257 254 251 247 244 243 239 228 221 223 226 229 231 233 237 240 242 240 241 245 248 249 251 248 245 245 252 257 262 265 267 270
Height
1506 1505 1504 1503 1502 1502 1501 1500 1500 1499 1498 1497 1497 1496 1495 1494 1493 1492 1491 1490 1489 1488 1487 1486 1485 1484 1483 1482 1481 1480 1479 1478 1476 1474 1473 1471 1470 1468 1466 1465 1463 1461 1459
1502 1501 1501 1500 1499 1498 1497 1497 1496 1495 1495 1494 1493 1492 1491 1490 1490 1489 1488 1487 1486 1485 1484 1483 1482 1481 1480 1479 1478 1477 1476 1474 1473 1470 1469 1468 1466 1464 1462 1461 1459 1457 1456
1499 1498 1497 1496 1495 1494 1493 1493 1492 1491 1491 1490 1489 1488 1487 1487 1486 1485 1484 1483 1482 1481 1480 1479 1478 1477 1476 1475 1474 1473 1472 1471 1469 1467 1465 1464 1462 1461 1459 1457 1456 1454 1452
1495 1494 1493 1492 1491 1490 1489 1488 1488 1487 1486 1485 1484 1484 1483 1482 1482 1481 1480 1479 1478 1478 1477 1476 1475 1474 1473 1472 1470 1469 1468 1467 1465 1464 1462 1460 1459 1457 1455 1453 1451 1450 1448
1491 1490 1489 1488 1487 1485 1484 1484 1483 1482 1481 1481 1480 1479 1478 1478 1477 1476 1476 1475 1474 1473 1472 1472 1471 1470 1469 1468 1467 1465 1464 1463 1461 1460 1458 1457 1455 1453 1452 1450 1448 1446 1444
1487 1486 1485 1483 1482 1481 1480 1479 1478 1477 1476 1476 1475 1474 1473 1473 1473 1472 1471 1471 1470 1469 1468 1467 1466 1466 1464 1463 1462 1461 1460 1459 1457 1456 1454 1453 1451 1450 1448 1447 1445 1442 1440
1483 1482 1480 1479 1477 1476 1475 1474 1473 1472 1471 1470 1470 1469 1468 1468 1468 1467 1467 1466 1465 1464 1463 1463 1462 1461 1460 1459 1458 1457 1456 1454 1454 1452 1450 1449 1447 1446 1445 1443 1441 1439 1437
1479 1477 1476 1474 1473 1472 1470 1469 1468 1467 1466 1465 1465 1464 1463 1463 1463 1462 1462 1461 1460 1459 1459 1458 1457 1456 1455 1454 1453 1451 1451 1450 1449 1448 1446 1445 1444 1442 1441 1440 1438 1435 1433
1474 1473 1471 1470 1468 1467 1465 1464 1463 1462 1461 1460 1459 1458 1458 1458 1458 1457 1456 1455 1454 1454 1453 1453 1452 1451 1450 1449 1448 1446 1445 1445 1444 1443 1442 1441 1440 1438 1437 1436 1434 1431 1428
1470 1468 1467 1465 1464 1462 1461 1459 1458 1456 1455 1454 1453 1453 1452 1452 1452 1451 1451 1450 1449 1448 1448 1447 1446 1445 1445 1444 1443 1441 1440 1439 1439 1438 1437 1436 1435 1434 1433 1431 1429 1427 1425
1465 1464 1463 1461 1459 1457 1456 1454 1453 1451 1450 1449 1448 1447 1447 1446 1446 1446 1445 1444 1443 1442 1441 1441 1440 1440 1439 1438 1437 1436 1435 1435 1434 1433 1432 1431 1430 1429 1428 1426 1425 1423 1421
1461 1459 1458 1456 1454 1452 1451 1449 1447 1446 1444 1443 1442 1441 1441 1440 1440 1439 1439 1438 1437 1436 1435 1435 1434 1434 1433 1433 1432 1431 1430 1430 1429 1428 1427 1425 1425 1424 1423 1421 1420 1418 1417
1456 1454 1452 1450 1449 1447 1445 1443 1442 1440 1439 1437 1436 1435 1434 1434 1434 1433 1433 1432 1431 1430 1429 1429 1428 1428 1427 1426 1426 1425 1425 1424 1423 1422 1421 1420 1419 1418 1417 1416 1414 1413 1411
1451 1449 1447 1445 1443 1441 1440 1438 1436 1434 1433 1431 1430 1429 1428 1427 1427 1427 1426 1426 1425 1424 1423 1423 1422 1422 1421 1420 1420 1419 1419 1418 1418 1417 1416 1415 1414 1413 1411 1410 1408 1407 1405
1446 1443 1441 1439 1437 1435 1434 1432 1430 1429 1428 1426 1425 1424 1422 1421 1421 1421 1420 1420 1419 1419 1418 1417 1416 1415 1415 1414 1414 1413 1413 1413 1412 1411 1411 1410 1408 1407 1406 1405 1403 1402 1400
1440 1438 1436 1433 1431 1429 1427 1426 1424 1423 1422 1420 1419 1418 1416 1416 1415 1414 1414 1413 1413 1412 1412 1410 1409 1409 1409 1408 1408 1407 1407 1407 1406 1406 1405 1404 1403 1402 1400 1399 1398 1396 1394
1435 1432 1430 1428 1425 1423 1421 1419 1417 1417 1416 1414 1413 1411 1410 1409 1409 1408 1407 1407 1407 1406 1405 1404 1403 1403 1403 1402 1402 1402 1401 1401 1401 1400 1399 1398 1397 1396 1395 1394 1392 1391 1389
1429 1427 1424 1422 1420 1418 1416 1414 1412 1410 1408 1407 1407 1405 1404 1403 1402 1402 1401 1401 1400 1399 1398 1398 1397 1397 1397 1397 1396 1396 1395 1395 1395 1394 1394 1393 1392 1391 1390 1388 1387 1385 1383
1423 1421 1419 1416 1414 1412 1410 1408 1406 1404 1402 1401 1400 1399 1398 1397 1396 1395 1395 1394 1393 1393 1392 1392 1392 1391 1391 1391 1391 1390 1390 1389 1389 1389 1388 1387 1386 1385 1384 1383 1382 1380 1378
1417 1415 1412 1410 1408 1406 1404 1402 1400 1398 1397 1395 1394 1393 1392 1391 1389 1389 1389 1388 1387 1387 1386 1386 1386 1386 1385 1385 1385 1384 1384 1384 1383 1383 1382 1382 1381 1380 1379 1377 1376 1374 1372
1410 1408 1406 1404 1401 1400 1398 1396 1394 1392 1391 1389 1388 1387 1386 1385 1384 1383 1382 1382 1381 1381 1380 1380 1380 1380 1379 1379 1379 1378 1378 1378 1378 1377 1377 1376 1375 1374 1373 1372 1370 1368 1366
1404 1401 1399 1397 1395 1393 1391 1390 1388 1386 1385 1383 1382 1381 1380 1379 1377 1377 1376 1376 1376 1375 1375 1375 1374 1374 1374 1373 1373 1373 1372 1372 1372 1371 1371 1370 1369 1368 1367 1366 1364 1363 1361
1397 1395 1392 1390 1389 1387 1385 1383 1382 1380 1379 1377 1376 1374 1373 1372 1371 1371 1370 1370 1370 1369 1369 1369 1368 1368 1368 1367 1367 1367 1366 1366 1366 1366 1365 1365 1364 1363 1362 1360 1359 1357 1355
1391 1389 1386 1384 1383 1381 1379 1377 1376 1374 1373 1371 1370 1368 1367 1366 1365 1365 1364 1364 1364 1363 1363 1363 1363 1362 1362 1362 1362 1361 1361 1361 1361 1360 1360 1359 1358 1357 1356 1355 1353 1352 1350
1385 1382 1380 1378 1376 1374 1373 1371 1369 1368 1366 1365 1364 1362 1361 1360 1359 1359 1358 1358 1358 1358 1358 1358 1357 1357 1357 1357 1356 1356 1356 1356 1356 1355 1354 1354 1353 1352 1351 1349 1348 1346 1344
1378 1376 1374 1372 1370 1368 1366 1364 1363 1362 1360 1359 1358 1356 1355 1354 1354 1353 1353 1352 1352 1352 1352 1352 1352 1352 1352 1352 1352 1351 1351 1351 1351 1350 1349 1348 1347 1346 1345 1344 1342 1341 1339